Location: Linz
(48.3300°N, 14.3000°E)
Time: 20:25:53
(UTC+01:00)

Envisat - Pass Details

Date: 17 November 2017
Orbit: 764 x 766 km, 98.2° (Epoch: 19 November)

Event Time Altitude Azimuth Distance (km) Brightness Sun altitude
Exits shadow 19:23:46 17° 355° (N) 1,856 5.0 -30.0°
Drops below altitude 10° 19:24:57 10° 352° (N) 2,313 5.6 -30.2°
Sets 19:27:17 0° 349° (N) 3,244 6.4 -30.6°
